QPF
0.00 0.00 0.00 0.00 0.00 0.00 0.00 0.01 0.00 0.00 0.00 0.00 0.00 0.00 0.00 0.00 0.00 0.02 0.02 0.01 0.02 0.02 0.01 0.01 0.01 0.01 0.01 0.02 0.02 0.01 0.01 0.02 0.02 0.03 0.04 0.04 0.04 0.05 0.05 0.06 0.05 0.08 0.07 0.08
0.00 0.00 0.00 0.00 0.00 0.00 0.00 0.00 0.00 0.00 0.00 0.00 0.00 0.00 0.00 0.00 0.00 0.00 0.01 0.01 0.03 0.03 0.04 0.03 0.02 0.02 0.02 0.02 0.02 0.02 0.01 0.01 0.02 0.03 0.03 0.03 0.04 0.05 0.04 0.04 0.08 0.10 0.11 0.11
0.00 0.00 0.00 0.00 0.00 0.00 0.00 0.00 0.00 0.00 0.00 0.01 0.00 0.01 0.00 0.00 0.00 0.00 0.01 0.01 0.02 0.03 0.04 0.03 0.02 0.01 0.01 0.01 0.02 0.02 0.02 0.03 0.03 0.02 0.02 0.02 0.03 0.04 0.04 0.04 0.05 0.07 0.12 0.12
0.00 0.00 0.00 0.00 0.00 0.00 0.01 0.00 0.00 0.00 0.01 0.01 0.00 0.01 0.00 0.00 0.00 0.00 0.01 0.01 0.02 0.01 0.02 0.02 0.02 0.02 0.01 0.01 0.02 0.03 0.03 0.03 0.03 0.03 0.02 0.02 0.03 0.04 0.04 0.04 0.04 0.05 0.08 0.13
0.00 0.00 0.00 0.00 0.00 0.00 0.00 0.00 0.00 0.00 0.00 0.01 0.00 0.01 0.00 0.00 0.00 0.00 0.00 0.00 0.00 0.00 0.01 0.01 0.01 0.02 0.02 0.03 0.03 0.02 0.02 0.02 0.02 0.02 0.02 0.02 0.01 0.02 0.03 0.03 0.04 0.04 0.04 0.07
0.00 0.00 0.00 0.00 0.00 0.00 0.00 0.00 0.00 0.00 0.00 0.01 0.01 0.00 0.00 0.00 0.00 0.00 0.00 0.00 0.00 0.00 0.00 0.01 0.02 0.03 0.02 0.03 0.02 0.02 0.01 0.01 0.01 0.02 0.01 0.02 0.02 0.03 0.04 0.04 0.04 0.03 0.03 0.03
0.00 0.00 0.00 0.00 0.00 0.00 0.00 0.00 0.01 0.01 0.01 0.01 0.00 0.00 0.00 0.00 0.00 0.00 0.00 0.00 0.00 0.00 0.00 0.00 0.00 0.02 0.02 0.03 0.02 0.01 0.01 0.02 0.01 0.01 0.01 0.02 0.02 0.03 0.04 0.03 0.03 0.03 0.03 0.02
0.00 0.00 0.00 0.00 0.00 0.00 0.00 0.00 0.00 0.01 0.01 0.01 0.01 0.01 0.00 0.00 0.00 0.00 0.00 0.00 0.00 0.00 0.00 0.00 0.00 0.00 0.01 0.02 0.03 0.02 0.02 0.03 0.03 0.02 0.02 0.02 0.02 0.02 0.03 0.03 0.03 0.03 0.03 0.02
0.00 0.00 0.00 0.00 0.00 0.00 0.00 0.00 0.00 0.00 0.00 0.01 0.01 0.01 0.00 0.00 0.00 0.00 0.00 0.00 0.00 0.00 0.01 0.02 0.02 0.02 0.02 0.02 0.03 0.04 0.04 0.04 0.03 0.03 0.03 0.02 0.03 0.04 0.03 0.03 0.03 0.02 0.03 0.02
0.00 0.00 0.00 0.00 0.00 0.00 0.00 0.00 0.00 0.01 0.01 0.01 0.00 0.00 0.00 0.00 0.00 0.00 0.00 0.00 0.00 0.01 0.01 0.02 0.02 0.02 0.03 0.02 0.02 0.03 0.04 0.04 0.04 0.03 0.03 0.03 0.05 0.05 0.04 0.03 0.03 0.03 0.02 0.03
0.00 0.00 0.00 0.00 0.00 0.00 0.00 0.00 0.00 0.00 0.00 0.00 0.00 0.01 0.00 0.00 0.00 0.00 0.00 0.00 0.00 0.00 0.01 0.01 0.01 0.02 0.02 0.01 0.01 0.02 0.03 0.04 0.04 0.04 0.03 0.03 0.04 0.04 0.04 0.03 0.03 0.03 0.03 0.03
0.00 0.00 0.00 0.00 0.00 0.00 0.00 0.00 0.00 0.00 0.00 0.00 0.00 0.00 0.00 0.00 0.00 0.00 0.00 0.00 0.00 0.00 0.00 0.00 0.00 0.00 0.01 0.02 0.01 0.01 0.02 0.02 0.02 0.02 0.01 0.02 0.04 0.04 0.03 0.03 0.02 0.02 0.02 0.02
0.00 0.00 0.00 0.00 0.00 0.00 0.00 0.00 0.00 0.00 0.00 0.00 0.00 0.00 0.00 0.00 0.00 0.00 0.00 0.00 0.00 0.00 0.00 0.00 0.00 0.00 0.00 0.01 0.01 0.01 0.02 0.02 0.02 0.02 0.01 0.02 0.02 0.02 0.02 0.02 0.02 0.01 0.01 0.02
0.00 0.00 0.00 0.00 0.00 0.00 0.00 0.00 0.00 0.00 0.00 0.00 0.00 0.00 0.00 0.00 0.00 0.00 0.00 0.00 0.01 0.00 0.00 0.00 0.00 0.00 0.00 0.01 0.01 0.02 0.02 0.03 0.03 0.02 0.03 0.03 0.02 0.02 0.02 0.01 0.01 0.02 0.02 0.02
0.00 0.00 0.00 0.00 0.00 0.00 0.00 0.00 0.00 0.00 0.00 0.00 0.00 0.00 0.00 0.00 0.00 0.00 0.00 0.01 0.00 0.00 0.00 0.00 0.00 0.00 0.00 0.00 0.01 0.01 0.01 0.02 0.02 0.03 0.03 0.03 0.02 0.02 0.02 0.01 0.01 0.01 0.01 0.01
0.00 0.00 0.00 0.00 0.00 0.00 0.00 0.00 0.00 0.00 0.00 0.00 0.00 0.00 0.00 0.00 0.00 0.00 0.01 0.01 0.01 0.01 0.01 0.00 0.00 0.00 0.00 0.00 0.01 0.00 0.00 0.01 0.02 0.02 0.02 0.01 0.01 0.01 0.01 0.00 0.00 0.01 0.01 0.01
0.00 0.00 0.00 0.00 0.00 0.00 0.00 0.00 0.00 0.00 0.00 0.00 0.00 0.00 0.00 0.00 0.00 0.00 0.01 0.01 0.01 0.00 0.01 0.01 0.00 0.00 0.00 0.00 0.00 0.00 0.00 0.01 0.02 0.02 0.02 0.02 0.02 0.02 0.02 0.02 0.01 0.02 0.02 0.02
0.00 0.00 0.00 0.00 0.00 0.00 0.00 0.00 0.00 0.00 0.00 0.00 0.00 0.00 0.00 0.00 0.00 0.00 0.00 0.00 0.00 0.00 0.00 0.00 0.00 0.00 0.00 0.00 0.00 0.00 0.00 0.01 0.02 0.02 0.03 0.03 0.03 0.02 0.03 0.04 0.04 0.03 0.04 0.05
0.00 0.00 0.00 0.00 0.00 0.00 0.00 0.00 0.00 0.00 0.00 0.00 0.00 0.00 0.00 0.00 0.00 0.00 0.01 0.01 0.00 0.00 0.00 0.00 0.01 0.00 0.00 0.00 0.00 0.01 0.01 0.01 0.02 0.03 0.03 0.03 0.03 0.03 0.04 0.05 0.04 0.04 0.05 0.05
0.00 0.00 0.00 0.00 0.00 0.00 0.00 0.00 0.00 0.00 0.00 0.00 0.00 0.00 0.00 0.00 0.01 0.01 0.00 0.01 0.00 0.00 0.00 0.01 0.01 0.01 0.01 0.01 0.01 0.01 0.02 0.02 0.02 0.02 0.02 0.02 0.03 0.03 0.03 0.03 0.04 0.04 0.04 0.04
0.00 0.00 0.00 0.00 0.00 0.00 0.00 0.00 0.00 0.00 0.00 0.00 0.00 0.00 0.01 0.01 0.01 0.01 0.00 0.00 0.00 0.00 0.00 0.00 0.00 0.00 0.00 0.00 0.00 0.01 0.01 0.02 0.02 0.02 0.02 0.02 0.02 0.02 0.02 0.03 0.03 0.03 0.02 0.02
0.00 0.00 0.00 0.00 0.00 0.00 0.00 0.00 0.00 0.00 0.00 0.01 0.01 0.01 0.01 0.01 0.01 0.01 0.00 0.00 0.00 0.00 0.00 0.00 0.00 0.00 0.00 0.00 0.01 0.02 0.02 0.03 0.04 0.04 0.03 0.03 0.02 0.01 0.01 0.02 0.02 0.02 0.02 0.01
0.00 0.00 0.00 0.00 0.00 0.00 0.00 0.00 0.00 0.00 0.01 0.01 0.01 0.01 0.01 0.01 0.01 0.01 0.01 0.01 0.01 0.00 0.00 0.00 0.01 0.00 0.00 0.01 0.01 0.02 0.03 0.04 0.05 0.04 0.04 0.04 0.03 0.02 0.01 0.02 0.02 0.02 0.02 0.01
0.00 0.00 0.00 0.00 0.00 0.00 0.00 0.00 0.00 0.00 0.00 0.01 0.01 0.01 0.01 0.01 0.01 0.02 0.02 0.02 0.02 0.01 0.01 0.01 0.01 0.01 0.01 0.01 0.01 0.02 0.02 0.03 0.04 0.04 0.05 0.05 0.05 0.05 0.04 0.04 0.03 0.03 0.02 0.01
0.00 0.00 0.00 0.00 0.00 0.00 0.00 0.00 0.00 0.00 0.01 0.01 0.02 0.01 0.01 0.02 0.02 0.03 0.03 0.02 0.02 0.02 0.02 0.02 0.02 0.02 0.02 0.02 0.02 0.02 0.03 0.03 0.04 0.04 0.04 0.04 0.05 0.06 0.06 0.05 0.04 0.02 0.01 0.01
0.00 0.01 0.01 0.01 0.00 0.00 0.00 0.00 0.01 0.01 0.02 0.02 0.01 0.01 0.02 0.02 0.03 0.04 0.03 0.02 0.02 0.02 0.02 0.02 0.03 0.03 0.02 0.02 0.02 0.02 0.02 0.02 0.02 0.02 0.03 0.04 0.05 0.05 0.05 0.04 0.03 0.02 0.01 0.01
MSLP
1008.65 1009.30 1009.88 1010.39 1010.80 1011.12 1011.34 1011.45 1011.44 1011.31 1011.05 1010.68 1010.22 1009.72 1009.24 1008.84 1008.57 1008.46 1008.52 1008.71 1009.01 1009.36 1009.70 1009.99 1010.20 1010.35 1010.44 1010.50 1010.58 1010.69 1010.85 1011.06 1011.30 1011.55 1011.78 1011.98 1012.13 1012.24 1012.32 1012.38 1012.44 1012.50 1012.56 1012.63
1009.44 1009.99 1010.47 1010.86 1011.17 1011.41 1011.58 1011.68 1011.68 1011.55 1011.30 1010.90 1010.40 1009.82 1009.23 1008.71 1008.32 1008.11 1008.10 1008.28 1008.60 1009.02 1009.45 1009.85 1010.17 1010.40 1010.54 1010.62 1010.69 1010.76 1010.87 1011.04 1011.24 1011.47 1011.70 1011.90 1012.07 1012.19 1012.28 1012.33 1012.37 1012.41 1012.45 1012.50
1010.05 1010.49 1010.84 1011.12 1011.35 1011.55 1011.72 1011.84 1011.89 1011.83 1011.61 1011.24 1010.70 1010.05 1009.35 1008.69 1008.16 1007.82 1007.71 1007.83 1008.16 1008.62 1009.14 1009.65 1010.08 1010.41 1010.62 1010.74 1010.82 1010.88 1010.97 1011.11 1011.29 1011.51 1011.74 1011.96 1012.14 1012.27 1012.36 1012.40 1012.42 1012.44 1012.45 1012.49
1010.40 1010.73 1010.98 1011.18 1011.37 1011.56 1011.77 1011.98 1012.12 1012.16 1012.02 1011.68 1011.13 1010.41 1009.59 1008.77 1008.07 1007.57 1007.33 1007.36 1007.66 1008.14 1008.73 1009.34 1009.88 1010.32 1010.63 1010.82 1010.93 1011.02 1011.11 1011.24 1011.43 1011.66 1011.90 1012.14 1012.35 1012.49 1012.58 1012.62 1012.62 1012.61 1012.60 1012.61
1010.48 1010.73 1010.91 1011.07 1011.25 1011.49 1011.79 1012.11 1012.39 1012.54 1012.49 1012.19 1011.63 1010.84 1009.90 1008.91 1008.03 1007.35 1006.95 1006.88 1007.11 1007.59 1008.23 1008.93 1009.58 1010.13 1010.54 1010.82 1011.00 1011.12 1011.25 1011.40 1011.61 1011.86 1012.14 1012.41 1012.64 1012.81 1012.91 1012.95 1012.93 1012.90 1012.87 1012.86
1010.34 1010.53 1010.67 1010.84 1011.06 1011.38 1011.79 1012.24 1012.65 1012.93 1012.97 1012.71 1012.14 1011.28 1010.21 1009.07 1008.00 1007.14 1006.59 1006.39 1006.55 1007.02 1007.69 1008.45 1009.19 1009.85 1010.36 1010.73 1010.99 1011.17 1011.34 1011.53 1011.77 1012.06 1012.37 1012.68 1012.95 1013.15 1013.27 1013.32 1013.30 1013.25 1013.20 1013.17
1010.03 1010.19 1010.34 1010.54 1010.83 1011.25 1011.77 1012.35 1012.88 1013.26 1013.37 1013.15 1012.56 1011.63 1010.47 1009.19 1007.96 1006.95 1006.25 1005.95 1006.04 1006.47 1007.15 1007.96 1008.78 1009.52 1010.12 1010.57 1010.90 1011.14 1011.35 1011.58 1011.86 1012.18 1012.53 1012.88 1013.20 1013.43 1013.58 1013.64 1013.63 1013.57 1013.51 1013.46
1009.63 1009.79 1009.97 1010.22 1010.59 1011.09 1011.71 1012.38 1013.00 1013.45 1013.61 1013.40 1012.80 1011.84 1010.60 1009.23 1007.90 1006.77 1005.98 1005.59 1005.61 1006.01 1006.69 1007.52 1008.39 1009.19 1009.85 1010.36 1010.74 1011.02 1011.27 1011.53 1011.83 1012.18 1012.57 1012.95 1013.31 1013.58 1013.76 1013.84 1013.84 1013.79 1013.73 1013.67
1009.20 1009.38 1009.60 1009.90 1010.33 1010.89 1011.57 1012.29 1012.94 1013.42 1013.60 1013.40 1012.79 1011.82 1010.56 1009.16 1007.79 1006.62 1005.77 1005.33 1005.32 1005.69 1006.35 1007.19 1008.06 1008.88 1009.57 1010.12 1010.52 1010.83 1011.09 1011.36 1011.68 1012.04 1012.45 1012.87 1013.25 1013.56 1013.77 1013.88 1013.91 1013.87 1013.81 1013.75
1008.79 1008.99 1009.24 1009.58 1010.04 1010.62 1011.30 1012.01 1012.66 1013.12 1013.29 1013.09 1012.50 1011.55 1010.32 1008.96 1007.62 1006.47 1005.64 1005.19 1005.16 1005.51 1006.14 1006.95 1007.80 1008.61 1009.30 1009.84 1010.25 1010.56 1010.82 1011.10 1011.42 1011.79 1012.21 1012.64 1013.04 1013.38 1013.63 1013.77 1013.82 1013.81 1013.76 1013.71
1008.41 1008.64 1008.91 1009.26 1009.72 1010.27 1010.91 1011.56 1012.13 1012.54 1012.67 1012.48 1011.92 1011.03 1009.89 1008.63 1007.39 1006.32 1005.55 1005.13 1005.10 1005.42 1006.01 1006.76 1007.57 1008.34 1009.00 1009.52 1009.92 1010.23 1010.49 1010.77 1011.08 1011.46 1011.88 1012.31 1012.73 1013.10 1013.37 1013.55 1013.63 1013.65 1013.63 1013.59
1008.06 1008.32 1008.60 1008.95 1009.37 1009.86 1010.40 1010.95 1011.42 1011.74 1011.82 1011.62 1011.10 1010.31 1009.30 1008.18 1007.08 1006.14 1005.45 1005.08 1005.05 1005.34 1005.87 1006.56 1007.30 1008.01 1008.63 1009.13 1009.53 1009.84 1010.11 1010.40 1010.72 1011.10 1011.52 1011.97 1012.40 1012.78 1013.07 1013.28 1013.40 1013.44 1013.44 1013.43
1007.76 1008.03 1008.32 1008.65 1009.01 1009.41 1009.83 1010.25 1010.59 1010.80 1010.82 1010.61 1010.15 1009.45 1008.58 1007.62 1006.69 1005.88 1005.29 1004.97 1004.94 1005.19 1005.65 1006.26 1006.92 1007.57 1008.15 1008.64 1009.05 1009.38 1009.69 1010.01 1010.36 1010.76 1011.19 1011.64 1012.08 1012.46 1012.78 1013.00 1013.14 1013.22 1013.24 1013.25
1007.49 1007.79 1008.08 1008.38 1008.67 1008.97 1009.27 1009.53 1009.73 1009.83 1009.78 1009.55 1009.13 1008.53 1007.80 1007.00 1006.22 1005.54 1005.03 1004.75 1004.71 1004.90 1005.28 1005.80 1006.39 1006.98 1007.54 1008.04 1008.48 1008.87 1009.25 1009.62 1010.02 1010.45 1010.90 1011.36 1011.79 1012.17 1012.48 1012.72 1012.87 1012.97 1013.01 1013.04
1007.27 1007.58 1007.88 1008.15 1008.39 1008.59 1008.75 1008.87 1008.94 1008.91 1008.79 1008.53 1008.14 1007.63 1007.01 1006.35 1005.70 1005.12 1004.68 1004.41 1004.34 1004.46 1004.76 1005.19 1005.71 1006.26 1006.81 1007.34 1007.84 1008.32 1008.77 1009.23 1009.69 1010.16 1010.63 1011.08 1011.50 1011.87 1012.17 1012.39 1012.55 1012.65 1012.70 1012.74
1007.08 1007.42 1007.73 1007.98 1008.16 1008.27 1008.32 1008.32 1008.25 1008.12 1007.92 1007.63 1007.26 1006.80 1006.28 1005.72 1005.16 1004.66 1004.25 1003.98 1003.87 1003.92 1004.13 1004.48 1004.94 1005.46 1006.03 1006.60 1007.18 1007.74 1008.29 1008.83 1009.35 1009.86 1010.34 1010.78 1011.17 1011.51 1011.77 1011.97 1012.11 1012.20 1012.26 1012.31
1006.91 1007.28 1007.59 1007.83 1007.97 1008.02 1007.98 1007.87 1007.70 1007.47 1007.20 1006.88 1006.51 1006.09 1005.63 1005.15 1004.66 1004.21 1003.82 1003.54 1003.38 1003.37 1003.51 1003.79 1004.19 1004.70 1005.28 1005.90 1006.55 1007.20 1007.83 1008.43 1009.00 1009.53 1010.00 1010.41 1010.76 1011.04 1011.25 1011.41 1011.52 1011.60 1011.65 1011.71
1006.75 1007.13 1007.45 1007.67 1007.79 1007.79 1007.69 1007.50 1007.25 1006.96 1006.63 1006.29 1005.92 1005.53 1005.12 1004.69 1004.26 1003.84 1003.47 1003.18 1002.99 1002.93 1003.01 1003.24 1003.61 1004.10 1004.69 1005.35 1006.04 1006.74 1007.42 1008.06 1008.64 1009.15 1009.59 1009.95 1010.23 1010.45 1010.60 1010.71 1010.79 1010.85 1010.90 1010.96
1006.57 1006.93 1007.24 1007.46 1007.56 1007.53 1007.39 1007.16 1006.87 1006.53 1006.19 1005.83 1005.48 1005.12 1004.75 1004.38 1004.00 1003.63 1003.28 1003.00 1002.80 1002.71 1002.75 1002.95 1003.29 1003.76 1004.34 1005.01 1005.71 1006.42 1007.11 1007.74 1008.29 1008.76 1009.14 1009.43 1009.64 1009.78 1009.88 1009.95 1010.00 1010.06 1010.11 1010.19
1006.32 1006.66 1006.95 1007.15 1007.24 1007.20 1007.05 1006.81 1006.50 1006.16 1005.82 1005.48 1005.15 1004.84 1004.53 1004.22 1003.90 1003.59 1003.30 1003.05 1002.86 1002.78 1002.81 1002.99 1003.30 1003.75 1004.30 1004.93 1005.61 1006.28 1006.93 1007.50 1007.99 1008.39 1008.69 1008.90 1009.05 1009.14 1009.19 1009.24 1009.29 1009.35 1009.43 1009.53
1006.01 1006.30 1006.55 1006.73 1006.81 1006.78 1006.64 1006.41 1006.13 1005.81 1005.50 1005.20 1004.93 1004.68 1004.44 1004.21 1003.98 1003.75 1003.53 1003.34 1003.20 1003.15 1003.19 1003.36 1003.65 1004.05 1004.56 1005.13 1005.74 1006.34 1006.89 1007.38 1007.79 1008.10 1008.32 1008.47 1008.56 1008.62 1008.66 1008.71 1008.78 1008.88 1009.00 1009.15
1005.66 1005.88 1006.08 1006.24 1006.32 1006.29 1006.18 1005.99 1005.75 1005.49 1005.23 1005.00 1004.79 1004.62 1004.47 1004.33 1004.20 1004.07 1003.94 1003.84 1003.77 1003.76 1003.83 1004.00 1004.27 1004.63 1005.07 1005.56 1006.07 1006.56 1007.02 1007.40 1007.71 1007.94 1008.10 1008.20 1008.27 1008.33 1008.39 1008.48 1008.60 1008.75 1008.93 1009.13
1005.30 1005.44 1005.60 1005.73 1005.80 1005.80 1005.72 1005.58 1005.41 1005.21 1005.03 1004.87 1004.75 1004.66 1004.60 1004.56 1004.53 1004.51 1004.48 1004.47 1004.49 1004.54 1004.65 1004.82 1005.07 1005.38 1005.75 1006.14 1006.55 1006.93 1007.27 1007.56 1007.78 1007.94 1008.06 1008.15 1008.22 1008.31 1008.43 1008.59 1008.78 1009.01 1009.26 1009.51
1004.99 1005.06 1005.16 1005.26 1005.33 1005.35 1005.32 1005.24 1005.13 1005.01 1004.91 1004.83 1004.78 1004.78 1004.80 1004.86 1004.93 1005.01 1005.08 1005.17 1005.26 1005.38 1005.53 1005.71 1005.94 1006.21 1006.50 1006.81 1007.11 1007.39 1007.64 1007.84 1008.00 1008.12 1008.22 1008.31 1008.43 1008.57 1008.76 1009.00 1009.27 1009.57 1009.89 1010.20
1004.77 1004.78 1004.83 1004.91 1004.98 1005.02 1005.03 1005.01 1004.97 1004.92 1004.88 1004.87 1004.89 1004.96 1005.06 1005.20 1005.35 1005.51 1005.68 1005.85 1006.02 1006.19 1006.38 1006.58 1006.80 1007.03 1007.26 1007.49 1007.71 1007.91 1008.08 1008.21 1008.33 1008.43 1008.54 1008.66 1008.82 1009.03 1009.29 1009.59 1009.94 1010.30 1010.66 1011.00
1004.68 1004.63 1004.64 1004.70 1004.77 1004.83 1004.87 1004.90 1004.91 1004.92 1004.94 1004.98 1005.07 1005.19 1005.35 1005.54 1005.76 1005.99 1006.23 1006.47 1006.70 1006.93 1007.15 1007.37 1007.58 1007.78 1007.97 1008.15 1008.31 1008.44 1008.56 1008.66 1008.75 1008.84 1008.96 1009.11 1009.31 1009.57 1009.88 1010.23 1010.61 1011.01 1011.39 1011.73
Thickness
5833 5827 5821 5826 5830 5827 5825 5820 5816 5820 5831 5826 5821 5820 5823 5825 5820 5816 5813 5812 5809 5809 5811 5810 5807 5804 5800 5795 5791 5788 5785 5782 5778 5776 5773 5771 5771 5771 5772 5771 5769 5768 5767 5767
5820 5818 5830 5834 5831 5825 5821 5816 5817 5822 5829 5823 5821 5821 5828 5827 5822 5822 5819 5816 5815 5813 5811 5809 5808 5806 5802 5798 5794 5790 5786 5784 5781 5778 5776 5774 5773 5773 5773 5772 5770 5769 5769 5768
5814 5825 5832 5826 5822 5818 5819 5817 5816 5815 5821 5825 5820 5816 5822 5828 5829 5827 5826 5824 5823 5818 5814 5811 5809 5807 5805 5801 5797 5794 5790 5786 5783 5781 5778 5776 5773 5772 5773 5772 5771 5771 5770 5769
5821 5830 5824 5820 5820 5821 5813 5826 5822 5816 5812 5813 5814 5802 5818 5826 5823 5824 5825 5825 5824 5822 5820 5816 5813 5809 5807 5805 5802 5797 5792 5788 5785 5782 5779 5775 5772 5771 5772 5773 5773 5772 5770 5770
5816 5823 5819 5815 5821 5824 5821 5828 5822 5819 5814 5810 5815 5806 5817 5826 5818 5822 5826 5828 5829 5827 5825 5821 5818 5815 5812 5809 5805 5800 5794 5789 5786 5783 5780 5776 5775 5775 5775 5774 5772 5771 5771 5770
5823 5831 5828 5825 5829 5829 5826 5820 5817 5817 5816 5793 5807 5803 5806 5822 5819 5823 5828 5829 5829 5829 5827 5824 5822 5818 5814 5811 5806 5801 5794 5789 5787 5783 5781 5777 5774 5773 5772 5771 5771 5771 5772 5772
5809 5818 5827 5830 5818 5820 5818 5806 5793 5789 5790 5793 5810 5802 5806 5822 5826 5825 5825 5828 5830 5831 5828 5824 5821 5817 5813 5810 5806 5802 5795 5789 5787 5784 5781 5778 5775 5773 5771 5770 5770 5770 5772 5771
5796 5799 5817 5824 5819 5813 5815 5813 5790 5777 5783 5797 5801 5798 5813 5827 5829 5830 5830 5830 5830 5829 5829 5825 5821 5818 5813 5810 5805 5801 5795 5790 5788 5785 5782 5779 5776 5775 5775 5772 5771 5770 5770 5771
5802 5801 5821 5824 5827 5821 5809 5810 5820 5804 5797 5790 5798 5805 5814 5824 5821 5823 5825 5824 5824 5824 5824 5821 5819 5816 5812 5808 5805 5801 5795 5790 5788 5785 5782 5778 5775 5773 5772 5771 5769 5770 5768 5768
5811 5795 5812 5816 5820 5816 5819 5817 5807 5798 5776 5773 5787 5794 5801 5805 5809 5814 5816 5817 5818 5819 5819 5818 5816 5814 5811 5808 5804 5800 5796 5790 5787 5784 5781 5778 5774 5771 5769 5768 5766 5766 5765 5764
5812 5795 5800 5805 5801 5803 5802 5801 5801 5800 5796 5778 5775 5790 5812 5808 5810 5810 5812 5813 5813 5814 5815 5814 5812 5812 5809 5806 5802 5797 5793 5789 5784 5782 5779 5776 5773 5770 5768 5765 5764 5762 5761 5760
5805 5799 5791 5798 5811 5814 5809 5805 5800 5786 5781 5786 5783 5790 5816 5814 5813 5811 5809 5809 5809 5810 5812 5811 5809 5806 5804 5802 5798 5793 5790 5786 5783 5780 5776 5773 5770 5768 5765 5763 5760 5758 5757 5756
5797 5789 5773 5779 5789 5797 5797 5800 5802 5801 5792 5785 5780 5788 5811 5808 5806 5807 5804 5803 5802 5802 5803 5804 5802 5799 5797 5795 5793 5790 5786 5784 5781 5777 5773 5769 5767 5764 5761 5760 5757 5754 5753 5751
5795 5788 5780 5774 5785 5795 5788 5790 5794 5791 5786 5782 5785 5788 5796 5796 5795 5797 5797 5796 5796 5795 5795 5795 5793 5791 5790 5788 5786 5784 5782 5780 5778 5774 5770 5765 5762 5759 5757 5755 5753 5750 5748 5746
5787 5779 5782 5789 5795 5794 5790 5788 5787 5784 5787 5782 5787 5788 5791 5791 5790 5790 5790 5789 5787 5787 5787 5786 5785 5783 5782 5781 5779 5778 5776 5774 5772 5767 5763 5760 5758 5755 5752 5749 5747 5745 5742 5741
5779 5772 5774 5773 5784 5784 5780 5785 5783 5782 5784 5783 5783 5783 5794 5792 5789 5784 5782 5781 5778 5778 5780 5780 5779 5777 5776 5774 5773 5771 5769 5767 5764 5759 5756 5754 5751 5748 5746 5743 5740 5737 5735 5733
5768 5763 5759 5762 5774 5770 5764 5778 5778 5778 5781 5780 5774 5779 5783 5778 5776 5776 5775 5775 5772 5772 5773 5773 5772 5771 5769 5769 5767 5764 5762 5760 5756 5752 5750 5747 5744 5741 5738 5736 5733 5730 5728 5725
5755 5753 5756 5758 5753 5736 5769 5786 5782 5774 5774 5777 5775 5776 5775 5772 5771 5772 5772 5770 5767 5766 5765 5765 5765 5764 5763 5763 5761 5758 5756 5752 5748 5745 5742 5739 5736 5733 5731 5728 5725 5723 5721 5718
5756 5747 5748 5749 5743 5749 5762 5770 5771 5763 5761 5772 5768 5767 5768 5768 5764 5762 5765 5764 5761 5760 5759 5758 5758 5757 5754 5753 5751 5749 5746 5742 5739 5736 5733 5731 5728 5725 5722 5719 5717 5715 5713 5710
5745 5743 5741 5739 5732 5733 5754 5766 5770 5761 5748 5764 5764 5760 5759 5756 5749 5751 5757 5755 5753 5752 5751 5749 5749 5747 5743 5742 5741 5738 5735 5732 5729 5726 5724 5722 5720 5716 5713 5710 5708 5707 5704 5702
5728 5727 5730 5731 5729 5744 5752 5757 5755 5735 5742 5757 5757 5754 5753 5749 5750 5749 5748 5745 5743 5741 5741 5740 5738 5735 5733 5732 5730 5726 5724 5721 5719 5717 5714 5712 5710 5707 5704 5702 5699 5697 5695 5693
5725 5726 5723 5726 5721 5729 5743 5743 5738 5739 5748 5749 5748 5748 5745 5743 5743 5740 5736 5733 5732 5731 5730 5728 5725 5722 5721 5721 5718 5715 5711 5711 5709 5706 5703 5701 5699 5697 5696 5691 5689 5687 5684 5682
5721 5724 5728 5727 5725 5728 5734 5735 5737 5739 5737 5738 5739 5739 5737 5733 5731 5729 5726 5724 5723 5721 5718 5717 5714 5711 5709 5708 5706 5702 5701 5700 5697 5694 5691 5690 5688 5686 5684 5681 5679 5677 5675 5674
5712 5713 5714 5713 5718 5721 5724 5726 5728 5729 5728 5730 5731 5731 5729 5724 5722 5719 5716 5714 5712 5710 5708 5706 5703 5700 5697 5696 5694 5692 5690 5688 5686 5683 5681 5680 5678 5676 5674 5671 5671 5669 5666 5664
5703 5701 5702 5701 5707 5710 5713 5715 5716 5717 5718 5719 5720 5720 5718 5714 5711 5709 5705 5703 5701 5699 5698 5696 5692 5689 5687 5685 5682 5681 5678 5676 5674 5672 5671 5669 5668 5666 5662 5661 5658 5656 5652 5650
5696 5694 5693 5695 5700 5700 5701 5705 5707 5705 5705 5707 5706 5706 5707 5705 5701 5699 5696 5694 5692 5690 5688 5685 5682 5679 5677 5675 5672 5669 5667 5665 5662 5661 5660 5660 5658 5656 5654 5651 5648 5643 5639 5635